STARLINK-11420, 62591

Orbit data source: Space-Track

STARLINK-11420, 62591 is a payload satellite owned by SpaceX/Seattle (US) in LEO that was launched on Mon, 13 Jan 2025 UTC via an FALCON 9 launch vehicle from the Air Force Eastern Test Range (AFETR). Payload-class satellites include a variety of spacecraft equipped with specific instruments for various scientific and technological missions. These include communications satellites like Starlink; space stations such as the ISS; scientific satellites like the Hubble; Earth observation satellites from companies like Planet Labs, Umbra, and HawkEye 360; GPS; miniature CubeSats for education and research; and military/defense satellites.

Loading next visibility...
Identifier
62591, 2025-008E
Orbit
LEO
Country
Flag of USUS
Related business
Manufacturer
SpaceX/Seattle
Mission
Operational Commercial Communications
Bus & Motor
STARLINK V2MD, Unknown motor
Mass
960 kg wet, ~910 kg dry
Launch date (UTC)
2025-01-13 (1 year ago)
Launch vehicle
FALCON 9
Launch site
Air Force Eastern Test Range (AFETR)
Object type
Payload
Rocket body
Debris
Shape & HBR
Box + 2 Pan, 18.1 m
Radar Cross Section
36.964 m², Large (>1 m²)

Expand to show TLE details & history
Last TLE update: 19 hours ago

TLE from 19 hours ago
0 STARLINK-11420
1 62591U 25008E   26124.77582460  .00206784  00000-0  15729-2 0  9995
2 62591  43.0010 148.2279 0000657 317.1706  42.9110 15.70875009 76113
Epoch: 2026-05-04T18:37Z
TLE epoch observation values (Epoch: 2026-05-04T18:37:11.245Z)
Latitude
-0.00005°
Longitude
6.27082°
Altitude
355.842 km
Speed
7.698 km/s
True Right ascension
09h 52m 54s
True Declination
0° 00' 00"
Sunlit
Object was in daylight at epoch
Visualization orbit readout
Latitude
Unknown
Longitude
Unknown
Altitude
Unknown
Speed
Unknown
Apparent Right ascension
Unknown
Apparent Declination
Unknown
Sunlit
N/A
Visualization observer readout
Local Sidereal Time
21:47:00
Azimuth
Unknown
Elevation
Unknown
Doppler factor
Unknown
Orbital elements
Apogee altitude
358.819 km
Perigee altitude
357.934 km
Semi-major axis
6,736.513 km
Eccentricity
0.00007
Inclination
43.001°
RAAN
148.2279°
Arg. of periapsis
317.1706°
True anomaly
42.91613°
Mean anomaly
42.911°
Eccentric anomaly
42.91356°
Mean motion
3.92546 °/min
Orbital period
91.71 mins
BSTAR
0.0015729
Loading maneuver chart data...
Computing Atmospheric mass density...
Loading historical data...
Loading historical data...
Loading historical data...
Loading historical data...
Loading historical data...
Loading historical data...
Loading historical data...

Documentation

Showing up to 5 results
|